TimeEDT,TemperatureF,Dew PointF,Humidity,Sea Level PressureIn,VisibilityMPH,Wind Direction,Wind SpeedMPH,Gust SpeedMPH,PrecipitationIn,Events,Conditions,WindDirDegrees,DateUTC
12:53 AM,64.9,60.1,84,30.07,10.0,East,3.5,-,N/A,,Clear,90,2013-03-18 04:53:00
1:53 AM,64.0,61.0,90,30.06,10.0,ESE,4.6,-,N/A,,Clear,110,2013-03-18 05:53:00
2:53 AM,64.0,61.0,90,30.06,10.0,Calm,Calm,-,N/A,,Clear,0,2013-03-18 06:53:00
3:53 AM,64.9,62.1,90,30.04,10.0,East,3.5,-,N/A,,Overcast,90,2013-03-18 07:53:00
4:53 AM,69.1,64.0,84,30.04,10.0,SE,3.5,-,N/A,,Clear,140,2013-03-18 08:53:00
5:53 AM,70.0,63.0,78,30.04,10.0,SE,5.8,-,N/A,,Clear,130,2013-03-18 09:53:00
6:53 AM,70.0,63.0,78,30.05,10.0,SE,5.8,-,N/A,,Clear,130,2013-03-18 10:53:00
7:53 AM,70.0,64.0,81,30.06,10.0,SE,5.8,-,N/A,,Clear,130,2013-03-18 11:53:00
8:53 AM,75.0,64.9,71,30.07,10.0,SE,11.5,-,N/A,,Clear,140,2013-03-18 12:53:00
9:53 AM,75.9,64.9,69,30.08,10.0,SE,11.5,-,N/A,,Scattered Clouds,140,2013-03-18 13:53:00
10:53 AM,75.9,66.0,71,30.08,10.0,SE,11.5,23.0,N/A,,Mostly Cloudy,130,2013-03-18 14:53:00
11:53 AM,79.0,66.9,66,30.06,10.0,SE,15.0,21.9,N/A,,Mostly Cloudy,140,2013-03-18 15:53:00
12:46 PM,80.6,66.2,61,30.05,10.0,SSE,15.0,25.3,N/A,,Mostly Cloudy,160,2013-03-18 16:46:00
12:53 PM,80.1,66.9,64,30.04,10.0,SSE,13.8,25.3,N/A,,Mostly Cloudy,150,2013-03-18 16:53:00
1:15 PM,80.6,66.2,61,30.05,10.0,SE,16.1,21.9,N/A,,Mostly Cloudy,140,2013-03-18 17:15:00
1:50 PM,80.6,66.2,61,30.03,10.0,SSE,12.7,20.7,N/A,,Mostly Cloudy,150,2013-03-18 17:50:00
1:53 PM,80.1,66.9,64,30.02,10.0,SSE,11.5,20.7,N/A,,Mostly Cloudy,160,2013-03-18 17:53:00
2:53 PM,81.0,66.9,62,29.99,10.0,SSE,13.8,19.6,N/A,,Mostly Cloudy,160,2013-03-18 18:53:00
3:53 PM,78.1,68.0,71,29.99,10.0,SSE,11.5,18.4,N/A,,Mostly Cloudy,160,2013-03-18 19:53:00
4:12 PM,77.0,68.0,74,30.00,10.0,SSE,9.2,-,N/A,,Mostly Cloudy,160,2013-03-18 20:12:00
4:39 PM,77.0,66.2,69,30.00,10.0,South,9.2,-,0.00,Rain,Light Rain,180,2013-03-18 20:39:00
4:53 PM,75.0,68.0,79,30.00,10.0,South,8.1,-,0.00,Rain,Light Rain,170,2013-03-18 20:53:00
5:53 PM,73.9,70.0,87,30.00,10.0,SSE,3.5,-,0.02,Rain,Light Rain,150,2013-03-18 21:53:00
6:53 PM,73.9,70.0,87,30.00,10.0,SSE,3.5,-,0.00,Rain,Light Rain,160,2013-03-18 22:53:00
7:53 PM,73.0,70.0,90,29.99,10.0,Calm,Calm,-,0.00,,Overcast,0,2013-03-18 23:53:00
8:53 PM,72.0,69.1,91,30.00,10.0,Calm,Calm,-,0.00,,Overcast,0,2013-03-19 00:53:00
9:53 PM,72.0,71.1,97,30.00,10.0,Calm,Calm,-,N/A,,Overcast,0,2013-03-19 01:53:00
10:53 PM,73.0,71.1,93,30.01,10.0,Calm,Calm,-,0.00,Rain,Light Rain,0,2013-03-19 02:53:00
11:53 PM,71.6,69.8,94,30.00,10.0,East,4.6,-,N/A,,Overcast,90,2013-03-19 03:53:00